| time (UTC) | temp F | wind direction | speed MPH | gust MPH | rain 1hr in | rain 24hr in | rain mn in | humidity % | barometer mb |
| 20260904083203 | 61 | 162 | 1.0 | 1.0 | 0.00 | 0.00 | 0.00 | 97 | 988.8 |
| 20260904081703 | 61 | 204 | 2.0 | 5.0 | 0.00 | 0.00 | 0.00 | 97 | 988.9 |
| 20260904081203 | 61 | 241 | 1.0 | 3.0 | 0.00 | 0.00 | 0.00 | 97 | 988.9 |
| 20260904080703 | 61 | 215 | 2.0 | 5.0 | 0.00 | 0.00 | 0.00 | 97 | 988.9 |
| 20260904080204 | 61 | 270 | 1.0 | 3.0 | 0.00 | 0.00 | 0.00 | 97 | 988.9 |
| 20260904075204 | 61 | 53 | 2.0 | 6.0 | 0.00 | 0.00 | 0.00 | 97 | 988.9 |
| 20260904074704 | 61 | 223 | 3.0 | 7.0 | 0.00 | 0.00 | 0.00 | 97 | 988.9 |
| 20260904073704 | 61 | 88 | 1.0 | 3.0 | 0.00 | 0.00 | 0.00 | 98 | 988.8 |
| 20260904073203 | 61 | 120 | 1.0 | 3.0 | 0.00 | 0.00 | 0.00 | 98 | 988.7 |
| 20260904072704 | 60 | 161 | 1.0 | 2.0 | 0.00 | 0.00 | 0.00 | 98 | 988.7 |
| 20260904072203 | 60 | 116 | 1.0 | 2.0 | 0.00 | 0.00 | 0.00 | 98 | 988.7 |
| 20260904071703 | 60 | 175 | 1.0 | 3.0 | 0.00 | 0.00 | 0.00 | 98 | 988.7 |
| 20260904071204 | 60 | 51 | 1.0 | 5.0 | 0.00 | 0.00 | 0.00 | 98 | 988.7 |
| 20260904070703 | 60 | 239 | 2.0 | 3.0 | 0.00 | 0.00 | 0.00 | 98 | 988.7 |
| 20260904065704 | 61 | 237 | 1.0 | 3.0 | 0.00 | 0.00 | 0.00 | 97 | 988.7 |
| 20260904064703 | 61 | 223 | 1.0 | 1.0 | 0.00 | 0.01 | 0.00 | 97 | 988.8 |
| 20260904062704 | 62 | 225 | 1.0 | 2.0 | 0.00 | 0.01 | 0.00 | 95 | 989.0 |
| 20260904062204 | 62 | 224 | 1.0 | 2.0 | 0.00 | 0.02 | 0.00 | 96 | 989.0 |
| 20260904061703 | 62 | 217 | 1.0 | 2.0 | 0.00 | 0.02 | 0.00 | 96 | 989.0 |
| 20260904060706 | 62 | 187 | 2.0 | 8.0 | 0.00 | 0.02 | 0.00 | 96 | 989.2 |
| 20260904060204 | 62 | 221 | 1.0 | 2.0 | 0.00 | 0.02 | 0.00 | 96 | 989.3 |
| 20260904055704 | 62 | 219 | 1.0 | 2.0 | 0.00 | 0.02 | 0.00 | 96 | 989.3 |
| 20260904055205 | 62 | 223 | 2.0 | 2.0 | 0.00 | 0.02 | 0.00 | 96 | 989.3 |
| 20260904054704 | 62 | 221 | 1.0 | 2.0 | 0.00 | 0.02 | 0.00 | 96 | 989.3 |
| 20260904054203 | 62 | 220 | 1.0 | 2.0 | 0.00 | 0.02 | 0.00 | 96 | 989.4 |
| 20260904053203 | 62 | 219 | 1.0 | 2.0 | 0.00 | 0.02 | 0.00 | 96 | 989.5 |
| 20260904052704 | 62 | 220 | 1.0 | 2.0 | 0.00 | 0.02 | 0.00 | 96 | 989.5 |
| 20260904052203 | 62 | 222 | 1.0 | 2.0 | 0.00 | 0.02 | 0.00 | 96 | 989.6 |
| 20260904051704 | 62 | 229 | 2.0 | 6.0 | 0.00 | 0.02 | 0.00 | 96 | 989.7 |
| 20260904051204 | 62 | 222 | 1.0 | 3.0 | 0.00 | 0.02 | 0.00 | 96 | 989.7 |
| 20260904050704 | 61 | 224 | 2.0 | 3.0 | 0.00 | 0.02 | 0.00 | 96 | 989.7 |
| 20260904050209 | 61 | 256 | 2.0 | 3.0 | 0.00 | 0.02 | 0.00 | 96 | 989.7 |
| 20260904045709 | 62 | 213 | 1.0 | 6.0 | 0.00 | 0.02 | 0.00 | 95 | 989.7 |
| 20260904044710 | 62 | 198 | 1.0 | 5.0 | 0.00 | 0.02 | 0.00 | 95 | 989.8 |
| 20260904044209 | 62 | 220 | 3.0 | 5.0 | 0.00 | 0.02 | 0.00 | 95 | 989.8 |
| 20260904043710 | 62 | 225 | 2.0 | 6.0 | 0.00 | 0.02 | 0.00 | 94 | 989.8 |
| 20260904043209 | 62 | 229 | 2.0 | 5.0 | 0.00 | 0.02 | 0.00 | 95 | 989.8 |
| 20260904042210 | 62 | 220 | 3.0 | 6.0 | 0.00 | 0.02 | 0.00 | 93 | 989.8 |
| 20260904041210 | 62 | 209 | 3.0 | 7.0 | 0.00 | 0.02 | 0.00 | 93 | 989.7 |
| 20260904040709 | 63 | 305 | 3.0 | 8.0 | 0.00 | 0.02 | 0.00 | 93 | 989.8 |
| 20260904035710 | 63 | 247 | 5.0 | 9.0 | 0.00 | 0.02 | 0.01 | 92 | 989.9 |
| 20260904035209 | 63 | 259 | 3.0 | 8.0 | 0.00 | 0.02 | 0.01 | 92 | 989.9 |
| 20260904034710 | 63 | 227 | 2.0 | 9.0 | 0.00 | 0.02 | 0.01 | 92 | 989.9 |
| 20260904034209 | 63 | 260 | 3.0 | 10.0 | 0.00 | 0.02 | 0.01 | 92 | 989.9 |
| 20260904033710 | 64 | 247 | 5.0 | 9.0 | 0.00 | 0.02 | 0.01 | 91 | 990.0 |
| 20260904032710 | 64 | 227 | 3.0 | 8.0 | 0.00 | 0.02 | 0.01 | 90 | 990.0 |
| 20260904032209 | 64 | 219 | 2.0 | 8.0 | 0.00 | 0.02 | 0.01 | 90 | 990.0 |
| 20260904031709 | 64 | 232 | 3.0 | 6.0 | 0.00 | 0.02 | 0.01 | 90 | 990.0 |
| 20260904031209 | 64 | 231 | 2.0 | 13.0 | 0.00 | 0.02 | 0.01 | 89 | 990.0 |
| 20260904030209 | 64 | 235 | 5.0 | 8.0 | 0.00 | 0.02 | 0.01 | 89 | 990.1 |
| 20260904025710 | 64 | 243 | 3.0 | 9.0 | 0.00 | 0.02 | 0.01 | 89 | 990.1 |
| 20260904025209 | 64 | 217 | 2.0 | 7.0 | 0.00 | 0.02 | 0.01 | 88 | 990.2 |
| 20260904024209 | 65 | 230 | 3.0 | 8.0 | 0.00 | 0.02 | 0.01 | 88 | 990.1 |
| 20260904023710 | 65 | 242 | 3.0 | 13.0 | 0.00 | 0.02 | 0.01 | 87 | 990.1 |
| 20260904023210 | 65 | 231 | 2.0 | 6.0 | 0.00 | 0.02 | 0.01 | 87 | 990.2 |
| 20260904022710 | 65 | 233 | 3.0 | 9.0 | 0.00 | 0.02 | 0.01 | 87 | 990.1 |
| 20260904022210 | 65 | 235 | 2.0 | 12.0 | 0.00 | 0.02 | 0.01 | 87 | 990.1 |
| 20260904021710 | 66 | 253 | 6.0 | 10.0 | 0.00 | 0.02 | 0.01 | 86 | 990.1 |
| 20260904021209 | 66 | 269 | 4.0 | 9.0 | 0.00 | 0.02 | 0.01 | 85 | 990.2 |
| 20260904020709 | 66 | 307 | 5.0 | 9.0 | 0.00 | 0.02 | 0.01 | 85 | 990.3 |
| 20260904020210 | 67 | 238 | 2.0 | 8.0 | 0.00 | 0.02 | 0.01 | 84 | 990.2 |
| 20260904015711 | 67 | 262 | 3.0 | 8.0 | 0.00 | 0.02 | 0.01 | 82 | 990.2 |
| 20260904015210 | 67 | 261 | 5.0 | 9.0 | 0.00 | 0.02 | 0.01 | 83 | 990.2 |
| 20260904014710 | 68 | 291 | 3.0 | 6.0 | 0.00 | 0.02 | 0.01 | 81 | 990.2 |
| 20260904014209 | 68 | 299 | 3.0 | 8.0 | 0.00 | 0.02 | 0.01 | 80 | 990.1 |
| 20260904013709 | 68 | 303 | 4.0 | 9.0 | 0.00 | 0.02 | 0.01 | 80 | 990.0 |
| 20260904013210 | 69 | 319 | 3.0 | 7.0 | 0.00 | 0.02 | 0.01 | 80 | 990.0 |
| 20260904012710 | 69 | 258 | 2.0 | 6.0 | 0.00 | 0.02 | 0.01 | 79 | 990.2 |
| 20260904012210 | 70 | 282 | 2.0 | 6.0 | 0.00 | 0.02 | 0.01 | 78 | 990.1 |
| 20260904011710 | 70 | 348 | 2.0 | 3.0 | 0.00 | 0.02 | 0.01 | 75 | 990.1 |
| 20260904011209 | 71 | 310 | 1.0 | 2.0 | 0.00 | 0.02 | 0.01 | 74 | 990.1 |
| 20260904010710 | 70 | 286 | 1.0 | 3.0 | 0.00 | 0.02 | 0.01 | 72 | 990.1 |
| 20260904010209 | 70 | 302 | 2.0 | 7.0 | 0.00 | 0.02 | 0.01 | 75 | 990.1 |
| 20260904005710 | 70 | 340 | 2.0 | 7.0 | 0.00 | 0.02 | 0.01 | 77 | 990.0 |
| 20260904005210 | 71 | 283 | 1.0 | 3.0 | 0.00 | 0.02 | 0.01 | 74 | 990.0 |
| 20260904004710 | 71 | 327 | 1.0 | 3.0 | 0.00 | 0.02 | 0.01 | 75 | 990.0 |
| 20260904004210 | 72 | 319 | 1.0 | 2.0 | 0.00 | 0.02 | 0.01 | 73 | 989.9 |
| 20260904003709 | 72 | 278 | 1.0 | 2.0 | 0.00 | 0.02 | 0.01 | 73 | 989.9 |
| 20260904003209 | 72 | 71 | 1.0 | 2.0 | 0.00 | 0.02 | 0.01 | 69 | 989.8 |
| 20260904002710 | 72 | 54 | 2.0 | 2.0 | 0.00 | 0.02 | 0.01 | 69 | 989.8 |
| 20260904002210 | 72 | 335 | 1.0 | 2.0 | 0.00 | 0.02 | 0.01 | 72 | 989.7 |
| 20260904001709 | 73 | 353 | 1.0 | 2.0 | 0.00 | 0.02 | 0.01 | 71 | 989.6 |
| 20260904001209 | 73 | 352 | 1.0 | 2.0 | 0.00 | 0.02 | 0.01 | 70 | 989.2 |
| 20260904000710 | 73 | 250 | 1.0 | 2.0 | 0.00 | 0.02 | 0.01 | 72 | 989.1 |
| 20260904000211 | 73 | 0 | 1.0 | 2.0 | 0.00 | 0.02 | 0.01 | 70 | 989.2 |
| 20260903235710 | 72 | 341 | 2.0 | 3.0 | 0.00 | 0.02 | 0.01 | 71 | 989.2 |
| 20260903234710 | 71 | 139 | 1.0 | 2.0 | 0.00 | 0.02 | 0.01 | 78 | 989.1 |
| 20260903234209 | 71 | 138 | 2.0 | 2.0 | 0.00 | 0.02 | 0.01 | 78 | 988.9 |
| 20260903233710 | 71 | 6 | 1.0 | 2.0 | 0.00 | 0.02 | 0.01 | 79 | 988.7 |
| 20260903233210 | 71 | 76 | 1.0 | 2.0 | 0.00 | 0.02 | 0.01 | 81 | 988.8 |
| 20260903232711 | 71 | 8 | 1.0 | 3.0 | 0.00 | 0.02 | 0.01 | 82 | 988.8 |
| 20260903232211 | 72 | 34 | 1.0 | 3.0 | 0.00 | 0.02 | 0.01 | 83 | 988.8 |
| 20260903231710 | 72 | 314 | 1.0 | 2.0 | 0.00 | 0.02 | 0.01 | 83 | 988.8 |
| 20260903231209 | 72 | 69 | 1.0 | 2.0 | 0.00 | 0.02 | 0.01 | 84 | 988.8 |
| 20260903230709 | 73 | 306 | 0.0 | 1.0 | 0.00 | 0.02 | 0.01 | 83 | 988.8 |
| 20260903230213 | 73 | 19 | 1.0 | 2.0 | 0.00 | 0.02 | 0.01 | 83 | 989.0 |
| 20260903222211 | 76 | 340 | 0.0 | 1.0 | 0.00 | 0.02 | 0.01 | 77 | 989.0 |
| 20260903220210 | 76 | 104 | 1.0 | 2.0 | 0.00 | 0.02 | 0.01 | 78 | 989.0 |
| 20260903215709 | 77 | 133 | 1.0 | 2.0 | 0.00 | 0.02 | 0.01 | 78 | 989.1 |
| 20260903213713 | 78 | 140 | 1.0 | 1.0 | 0.00 | 0.02 | 0.01 | 75 | 989.4 |
| 20260903213212 | 78 | 183 | 1.0 | 2.0 | 0.00 | 0.02 | 0.01 | 75 | 989.3 |
| 20260903212710 | 78 | 143 | 1.0 | 2.0 | 0.00 | 0.02 | 0.01 | 75 | 989.3 |
| 20260903212210 | 79 | 152 | 1.0 | 2.0 | 0.00 | 0.02 | 0.01 | 74 | 989.4 |
| 20260903211212 | 79 | 134 | 1.0 | 2.0 | 0.00 | 0.02 | 0.01 | 73 | 989.2 |
| 20260903210722 | 79 | 8 | 1.0 | 1.0 | 0.00 | 0.02 | 0.01 | 73 | 989.1 |
| 20260903210211 | 79 | 26 | 1.0 | 2.0 | 0.00 | 0.02 | 0.01 | 73 | 989.0 |
| 20260903205711 | 78 | 318 | 1.0 | 2.0 | 0.00 | 0.02 | 0.01 | 74 | 989.0 |
| 20260903205211 | 78 | 142 | 1.0 | 2.0 | 0.00 | 0.02 | 0.01 | 74 | 989.0 |
| 20260903204714 | 78 | 135 | 0.0 | 1.0 | 0.00 | 0.02 | 0.01 | 75 | 989.0 |
| 20260903204215 | 78 | 136 | 1.0 | 2.0 | 0.00 | 0.02 | 0.01 | 73 | 989.0 |
| 20260903203209 | 78 | 35 | 1.0 | 2.0 | 0.00 | 0.02 | 0.01 | 75 | 989.0 |
| 20260903202714 | 78 | 18 | 1.0 | 2.0 | 0.00 | 0.02 | 0.01 | 74 | 989.0 |
| 20260903194203 | 81 | 230 | 1.0 | 3.0 | 0.00 | 0.02 | 0.01 | 68 | 989.3 |
| 20260903193704 | 82 | 114 | 1.0 | 3.0 | 0.00 | 0.02 | 0.01 | 70 | 989.5 |
| 20260903193204 | 84 | 103 | 3.0 | 3.0 | 0.00 | 0.02 | 0.01 | 68 | 989.5 |
| 20260903192204 | 85 | 27 | 1.0 | 2.0 | 0.00 | 0.02 | 0.01 | 59 | 989.5 |
| 20260903191706 | 83 | 125 | 1.0 | 2.0 | 0.00 | 0.02 | 0.01 | 67 | 989.5 |
| 20260903191204 | 83 | 146 | 2.0 | 3.0 | 0.00 | 0.02 | 0.01 | 69 | 989.5 |
| 20260903190203 | 84 | 312 | 2.0 | 3.0 | 0.00 | 0.02 | 0.01 | 64 | 989.5 |
| 20260903185704 | 84 | 209 | 2.0 | 3.0 | 0.00 | 0.02 | 0.01 | 65 | 989.6 |
| 20260903185204 | 83 | 135 | 2.0 | 3.0 | 0.00 | 0.02 | 0.01 | 65 | 989.5 |
| 20260903184703 | 82 | 143 | 2.0 | 3.0 | 0.00 | 0.02 | 0.01 | 67 | 989.6 |
| 20260903184205 | 81 | 160 | 2.0 | 3.0 | 0.00 | 0.02 | 0.01 | 69 | 989.6 |
| 20260903183704 | 79 | 113 | 1.0 | 3.0 | 0.00 | 0.02 | 0.01 | 71 | 989.6 |
| 20260903183203 | 79 | 186 | 0.0 | 2.0 | 0.00 | 0.02 | 0.01 | 75 | 989.7 |
| 20260903182704 | 79 | 164 | 1.0 | 2.0 | 0.00 | 0.02 | 0.01 | 74 | 989.8 |
| 20260903182204 | 79 | 139 | 0.0 | 2.0 | 0.00 | 0.02 | 0.01 | 74 | 989.8 |
| 20260903181704 | 79 | 327 | 1.0 | 3.0 | 0.00 | 0.02 | 0.01 | 74 | 990.0 |
| 20260903181203 | 80 | 349 | 0.0 | 2.0 | 0.00 | 0.02 | 0.01 | 72 | 990.0 |
| 20260903180204 | 76 | 138 | 1.0 | 3.0 | 0.00 | 0.02 | 0.01 | 77 | 990.1 |
| 20260903175703 | 75 | 156 | 1.0 | 1.0 | 0.00 | 0.02 | 0.01 | 80 | 990.1 |
| 20260903175204 | 76 | 114 | 0.0 | 1.0 | 0.00 | 0.02 | 0.01 | 80 | 990.2 |
| 20260903172704 | 76 | 193 | 1.0 | 2.0 | 0.00 | 0.02 | 0.01 | 78 | 990.4 |
| 20260903172204 | 77 | 145 | 1.0 | 2.0 | 0.00 | 0.02 | 0.01 | 76 | 990.3 |
| 20260903171704 | 78 | 157 | 2.0 | 3.0 | 0.00 | 0.02 | 0.01 | 75 | 990.4 |
| 20260903171204 | 80 | 173 | 2.0 | 5.0 | 0.00 | 0.02 | 0.01 | 71 | 990.4 |
| 20260903170703 | 80 | 149 | 2.0 | 3.0 | 0.00 | 0.02 | 0.01 | 72 | 990.4 |
| 20260903170204 | 79 | 115 | 1.0 | 2.0 | 0.00 | 0.02 | 0.01 | 73 | 990.5 |
| 20260903165704 | 79 | 94 | 2.0 | 3.0 | 0.00 | 0.02 | 0.01 | 75 | 990.5 |
| 20260903165204 | 80 | 123 | 2.0 | 2.0 | 0.00 | 0.02 | 0.01 | 72 | 990.5 |
| 20260903164704 | 79 | 123 | 1.0 | 5.0 | 0.00 | 0.02 | 0.01 | 71 | 990.5 |
| 20260903164203 | 78 | 102 | 1.0 | 2.0 | 0.00 | 0.02 | 0.01 | 74 | 990.5 |
| 20260903163704 | 77 | 61 | 1.0 | 3.0 | 0.00 | 0.02 | 0.01 | 75 | 990.5 |
| 20260903163203 | 74 | 231 | 1.0 | 2.0 | 0.00 | 0.02 | 0.01 | 80 | 990.7 |
| 20260903162704 | 73 | 220 | 2.0 | 2.0 | 0.00 | 0.02 | 0.01 | 83 | 990.8 |
| 20260903162204 | 74 | 262 | 1.0 | 2.0 | 0.00 | 0.02 | 0.01 | 81 | 990.9 |
| 20260903161704 | 74 | 220 | 1.0 | 2.0 | 0.00 | 0.02 | 0.01 | 81 | 991.0 |
| 20260903161203 | 74 | 212 | 1.0 | 2.0 | 0.00 | 0.02 | 0.01 | 81 | 991.0 |
| 20260903160704 | 75 | 227 | 1.0 | 2.0 | 0.00 | 0.02 | 0.01 | 80 | 991.0 |
| 20260903160204 | 75 | 215 | 1.0 | 2.0 | 0.00 | 0.02 | 0.01 | 79 | 991.1 |
| 20260903155704 | 74 | 211 | 1.0 | 2.0 | 0.00 | 0.02 | 0.01 | 80 | 991.0 |
| 20260903155204 | 75 | 217 | 2.0 | 2.0 | 0.00 | 0.02 | 0.01 | 78 | 991.0 |
| 20260903154704 | 74 | 209 | 1.0 | 2.0 | 0.00 | 0.02 | 0.01 | 81 | 991.2 |
| 20260903154204 | 74 | 222 | 1.0 | 2.0 | 0.00 | 0.02 | 0.01 | 80 | 991.1 |
| 20260903153704 | 74 | 226 | 1.0 | 1.0 | 0.00 | 0.02 | 0.01 | 81 | 991.1 |
| 20260903153204 | 73 | 228 | 1.0 | 1.0 | 0.00 | 0.02 | 0.01 | 81 | 991.1 |
| 20260903152703 | 73 | 224 | 1.0 | 1.0 | 0.00 | 0.02 | 0.01 | 82 | 991.2 |
| 20260903152203 | 73 | 224 | 1.0 | 2.0 | 0.00 | 0.02 | 0.01 | 83 | 991.3 |
| 20260903151705 | 73 | 223 | 1.0 | 2.0 | 0.00 | 0.02 | 0.01 | 82 | 991.4 |
| 20260903151203 | 73 | 220 | 2.0 | 2.0 | 0.00 | 0.02 | 0.01 | 82 | 991.4 |
| 20260903150704 | 73 | 222 | 2.0 | 2.0 | 0.00 | 0.02 | 0.01 | 82 | 991.3 |
| 20260903150204 | 73 | 222 | 2.0 | 2.0 | 0.00 | 0.02 | 0.01 | 81 | 991.3 |
| 20260903145703 | 73 | 222 | 1.0 | 2.0 | 0.00 | 0.02 | 0.01 | 81 | 991.2 |
| 20260903145203 | 72 | 215 | 1.0 | 3.0 | 0.00 | 0.02 | 0.01 | 82 | 991.2 |
| 20260903144704 | 72 | 205 | 1.0 | 5.0 | 0.00 | 0.02 | 0.01 | 83 | 991.3 |
| 20260903144204 | 71 | 241 | 1.0 | 5.0 | 0.00 | 0.02 | 0.01 | 84 | 991.4 |
| 20260903143703 | 71 | 229 | 2.0 | 5.0 | 0.00 | 0.02 | 0.01 | 86 | 991.5 |
| 20260903143205 | 70 | 252 | 3.0 | 8.0 | 0.00 | 0.02 | 0.01 | 86 | 991.4 |
| 20260903142204 | 69 | 328 | 3.0 | 8.0 | 0.00 | 0.02 | 0.01 | 87 | 991.6 |
| 20260903141704 | 69 | 269 | 3.0 | 7.0 | 0.00 | 0.02 | 0.01 | 86 | 991.8 |
| 20260903141204 | 69 | 296 | 1.0 | 5.0 | 0.00 | 0.02 | 0.01 | 86 | 991.7 |
| 20260903140204 | 68 | 210 | 2.0 | 3.0 | 0.00 | 0.02 | 0.01 | 89 | 991.8 |
| 20260903135204 | 67 | 207 | 1.0 | 2.0 | 0.00 | 0.02 | 0.01 | 90 | 991.8 |
| 20260903134204 | 67 | 293 | 1.0 | 6.0 | 0.00 | 0.02 | 0.01 | 89 | 991.7 |
| 20260903133704 | 67 | 248 | 3.0 | 8.0 | 0.00 | 0.02 | 0.01 | 90 | 991.6 |
| 20260903133203 | 67 | 231 | 2.0 | 5.0 | 0.00 | 0.02 | 0.01 | 91 | 991.6 |
| 20260903132704 | 66 | 220 | 1.0 | 2.0 | 0.00 | 0.02 | 0.01 | 91 | 991.6 |
| 20260903132204 | 66 | 23 | 2.0 | 7.0 | 0.00 | 0.02 | 0.01 | 90 | 991.7 |
| 20260903131204 | 65 | 223 | 1.0 | 1.0 | 0.00 | 0.02 | 0.01 | 91 | 991.7 |
| 20260903130203 | 65 | 221 | 1.0 | 2.0 | 0.00 | 0.02 | 0.01 | 93 | 991.7 |
| 20260903125703 | 65 | 223 | 0.0 | 1.0 | 0.00 | 0.02 | 0.01 | 93 | 991.7 |
| 20260903125203 | 65 | 220 | 2.0 | 8.0 | 0.00 | 0.02 | 0.01 | 94 | 991.7 |
| 20260903124705 | 65 | 225 | 3.0 | 9.0 | 0.00 | 0.02 | 0.01 | 94 | 991.8 |
| 20260903124204 | 64 | 226 | 6.0 | 9.0 | 0.00 | 0.02 | 0.01 | 95 | 991.8 |
| 20260903123204 | 64 | 225 | 7.0 | 9.0 | 0.00 | 0.02 | 0.01 | 94 | 991.8 |
| 20260903122704 | 64 | 225 | 5.0 | 9.0 | 0.00 | 0.02 | 0.01 | 94 | 991.8 |
| 20260903122203 | 64 | 229 | 5.0 | 8.0 | 0.00 | 0.02 | 0.01 | 95 | 991.8 |
| 20260903121703 | 64 | 265 | 2.0 | 3.0 | 0.00 | 0.02 | 0.01 | 96 | 991.9 |
| 20260903121205 | 64 | 217 | 2.0 | 6.0 | 0.00 | 0.02 | 0.01 | 96 | 991.9 |
| 20260903120704 | 64 | 219 | 1.0 | 3.0 | 0.00 | 0.02 | 0.01 | 96 | 992.0 |
| 20260903115704 | 64 | 220 | 2.0 | 3.0 | 0.00 | 0.02 | 0.01 | 96 | 992.0 |
| 20260903115204 | 64 | 203 | 2.0 | 2.0 | 0.00 | 0.02 | 0.01 | 96 | 992.0 |
| 20260903114703 | 63 | 213 | 2.0 | 3.0 | 0.00 | 0.02 | 0.01 | 97 | 992.0 |
| 20260903114203 | 63 | 227 | 1.0 | 5.0 | 0.00 | 0.02 | 0.01 | 97 | 991.9 |
| 20260903113703 | 63 | 243 | 1.0 | 2.0 | 0.00 | 0.02 | 0.01 | 96 | 991.9 |
| 20260903112204 | 63 | 226 | 2.0 | 7.0 | 0.00 | 0.02 | 0.01 | 97 | 992.0 |
| 20260903111703 | 63 | 214 | 2.0 | 6.0 | 0.00 | 0.02 | 0.01 | 96 | 992.0 |
| 20260903111204 | 63 | 233 | 3.0 | 6.0 | 0.00 | 0.02 | 0.01 | 97 | 991.9 |
| 20260903110204 | 62 | 222 | 2.0 | 6.0 | 0.00 | 0.02 | 0.01 | 97 | 992.0 |
| 20260903105704 | 62 | 238 | 1.0 | 6.0 | 0.00 | 0.02 | 0.01 | 97 | 992.0 |
| 20260903104704 | 62 | 163 | 1.0 | 2.0 | 0.00 | 0.02 | 0.01 | 97 | 992.0 |
| 20260903104204 | 62 | 246 | 2.0 | 3.0 | 0.00 | 0.02 | 0.01 | 97 | 992.0 |
| 20260903103703 | 62 | 230 | 2.0 | 6.0 | 0.00 | 0.02 | 0.01 | 97 | 991.8 |
| 20260903103204 | 62 | 220 | 2.0 | 5.0 | 0.00 | 0.02 | 0.01 | 97 | 991.9 |
| 20260903102704 | 62 | 68 | 2.0 | 6.0 | 0.00 | 0.02 | 0.01 | 97 | 992.0 |
| 20260903101704 | 62 | 205 | 1.0 | 3.0 | 0.00 | 0.02 | 0.01 | 97 | 991.8 |
| 20260903101204 | 62 | 200 | 1.0 | 2.0 | 0.00 | 0.02 | 0.01 | 97 | 991.8 |
| 20260903100704 | 62 | 222 | 1.0 | 2.0 | 0.00 | 0.02 | 0.01 | 97 | 991.8 |
| 20260903100204 | 62 | 115 | 2.0 | 5.0 | 0.00 | 0.02 | 0.01 | 97 | 991.7 |
| 20260903095704 | 62 | 192 | 1.0 | 2.0 | 0.00 | 0.02 | 0.01 | 97 | 991.8 |
| 20260903095203 | 62 | 31 | 1.0 | 3.0 | 0.00 | 0.02 | 0.01 | 97 | 991.7 |
| 20260903094704 | 62 | 271 | 1.0 | 1.0 | 0.00 | 0.02 | 0.01 | 97 | 991.7 |
| 20260903094203 | 62 | 228 | 2.0 | 3.0 | 0.00 | 0.02 | 0.01 | 97 | 991.6 |
| 20260903093704 | 62 | 218 | 1.0 | 3.0 | 0.00 | 0.02 | 0.01 | 96 | 991.6 |
| 20260903093204 | 62 | 251 | 1.0 | 5.0 | 0.00 | 0.02 | 0.01 | 96 | 991.6 |
| 20260903092204 | 62 | 235 | 1.0 | 3.0 | 0.00 | 0.02 | 0.01 | 96 | 991.7 |
| 20260903091703 | 62 | 203 | 1.0 | 3.0 | 0.00 | 0.02 | 0.01 | 96 | 991.8 |
| 20260903091203 | 62 | 190 | 1.0 | 3.0 | 0.00 | 0.02 | 0.01 | 96 | 991.7 |
| 20260903090704 | 62 | 248 | 1.0 | 1.0 | 0.00 | 0.02 | 0.01 | 97 | 991.8 |
| 20260903085704 | 62 | 261 | 1.0 | 3.0 | 0.00 | 0.02 | 0.01 | 96 | 991.9 |
| 20260903085204 | 62 | 102 | 0.0 | 2.0 | 0.00 | 0.02 | 0.01 | 96 | 992.0 |
| 20260903084704 | 62 | 206 | 1.0 | 2.0 | 0.00 | 0.02 | 0.01 | 97 | 992.0 |
| 20260903084204 | 62 | 207 | 2.0 | 2.0 | 0.00 | 0.02 | 0.01 | 96 | 992.0 |
| 20260903083704 | 62 | 292 | 2.0 | 2.0 | 0.00 | 0.02 | 0.01 | 97 | 992.1 |